SAS4615 ENZV-EGPD

Flight info

Callsign SAS4615
Flight time 0h 45m
Altitude 38000
Route LAPOT DCT KLONN DCT OVDAN P600 ADN
Aircraft B736/M-SDE2E3FGHIRWXY/LB1

Departure

Time 2026-04-28 11:56
Airport Stavanger Airport, Sola (ENZV)

Arrival

Time 2026-04-28 12:41
Airport Aberdeen International Airport (EGPD)
Time Latitude Longitude Altitude Speed Heading
2026-04-28 11:21 58.88046 5.62820 24 ft 0 kts 359°
2026-04-28 11:47 58.88037 5.62821 28 ft 4 kts 359°
2026-04-28 11:47 58.88010 5.62822 27 ft 4 kts 359°
2026-04-28 11:47 58.87999 5.62822 27 ft 0 kts 359°
2026-04-28 11:51 58.88001 5.62831 30 ft 1 kts 60°
2026-04-28 11:51 58.87993 5.62913 25 ft 12 kts 98°
2026-04-28 11:52 58.87980 5.63098 26 ft 15 kts 107°
2026-04-28 11:52 58.87950 5.63298 29 ft 15 kts 105°
2026-04-28 11:52 58.87870 5.63306 30 ft 15 kts 204°
2026-04-28 11:52 58.87769 5.63286 30 ft 16 kts 181°
2026-04-28 11:53 58.87635 5.63296 30 ft 23 kts 179°
2026-04-28 11:53 58.87470 5.63300 30 ft 24 kts 179°
2026-04-28 11:53 58.87309 5.63305 28 ft 23 kts 178°
2026-04-28 11:53 58.87148 5.63310 31 ft 23 kts 179°
2026-04-28 11:54 58.87030 5.63339 32 ft 14 kts 145°
2026-04-28 11:54 58.86997 5.63495 32 ft 13 kts 76°
2026-04-28 11:54 58.87036 5.63651 34 ft 13 kts 63°
2026-04-28 11:54 58.87068 5.63791 34 ft 9 kts 54°
2026-04-28 11:55 58.87110 5.63800 34 ft 2 kts 356°
2026-04-28 11:55 58.87135 5.63798 33 ft 7 kts 359°
2026-04-28 11:55 58.87384 5.63791 33 ft 71 kts 360°
2026-04-28 11:55 58.88095 5.63774 31 ft 130 kts 359°
2026-04-28 11:56 58.89135 5.63760 198 ft 159 kts 357°
2026-04-28 11:56 58.89856 5.63782 687 ft 154 kts 358°
2026-04-28 11:56 58.90914 5.63772 1372 ft 152 kts 355°
2026-04-28 11:56 58.92010 5.63682 1862 ft 167 kts 356°
2026-04-28 11:57 58.93257 5.63587 2298 ft 192 kts 357°
2026-04-28 11:57 58.94699 5.63530 2553 ft 221 kts 359°
2026-04-28 11:57 58.96284 5.63479 3210 ft 232 kts 358°
2026-04-28 11:57 58.97899 5.63393 4167 ft 230 kts 353°
2026-04-28 11:58 58.99340 5.62174 5114 ft 232 kts 316°
2026-04-28 11:58 59.00126 5.59437 5938 ft 240 kts 284°
2026-04-28 11:58 59.00141 5.56170 6828 ft 248 kts 259°
2026-04-28 11:58 58.99484 5.52973 7446 ft 267 kts 244°
2026-04-28 11:59 58.98502 5.49807 8124 ft 279 kts 240°
2026-04-28 11:59 58.97433 5.46623 9006 ft 284 kts 239°
2026-04-28 11:59 58.96339 5.43396 9981 ft 288 kts 239°
2026-04-28 11:59 58.95236 5.40121 10908 ft 293 kts 239°
2026-04-28 12:00 58.94110 5.36751 11594 ft 308 kts 240°
2026-04-28 12:00 58.92895 5.33101 11834 ft 337 kts 240°
2026-04-28 12:00 58.91600 5.29194 12408 ft 351 kts 240°
2026-04-28 12:00 58.90269 5.25171 13220 ft 358 kts 240°
2026-04-28 12:01 58.88920 5.21081 14122 ft 363 kts 240°
2026-04-28 12:01 58.87552 5.16926 14925 ft 369 kts 241°
2026-04-28 12:01 58.86163 5.12706 15706 ft 376 kts 241°
2026-04-28 12:01 58.84750 5.08412 16494 ft 382 kts 241°
2026-04-28 12:02 58.83334 5.04112 17257 ft 388 kts 241°
2026-04-28 12:02 58.81871 4.99679 18051 ft 394 kts 241°
2026-04-28 12:02 58.80385 4.95181 18837 ft 401 kts 242°
2026-04-28 12:02 58.78873 4.90615 19524 ft 406 kts 242°
2026-04-28 12:03 58.77341 4.85998 20261 ft 411 kts 242°
2026-04-28 12:03 58.75794 4.81348 20992 ft 415 kts 242°
2026-04-28 12:03 58.74227 4.76642 21708 ft 420 kts 242°
2026-04-28 12:03 58.72639 4.71886 22409 ft 425 kts 241°
2026-04-28 12:04 58.71176 4.66946 23083 ft 425 kts 251°
2026-04-28 12:04 58.70176 4.61613 23809 ft 424 kts 257°
2026-04-28 12:04 58.69282 4.56176 24433 ft 429 kts 258°
2026-04-28 12:04 58.68391 4.50678 25000 ft 433 kts 258°
2026-04-28 12:05 58.67486 4.45124 25583 ft 437 kts 258°
2026-04-28 12:05 58.66561 4.39535 26128 ft 441 kts 258°
2026-04-28 12:05 58.65615 4.33896 26721 ft 445 kts 257°
2026-04-28 12:05 58.64652 4.28221 27293 ft 448 kts 257°
2026-04-28 12:06 58.63676 4.22512 27812 ft 453 kts 257°
2026-04-28 12:06 58.62680 4.16727 28327 ft 457 kts 257°
2026-04-28 12:06 58.61676 4.10914 28837 ft 461 kts 257°
2026-04-28 12:06 58.60671 4.05123 29330 ft 465 kts 257°
2026-04-28 12:07 58.59629 3.99137 29832 ft 469 kts 257°
2026-04-28 12:07 58.58603 3.93259 30303 ft 473 kts 257°
2026-04-28 12:07 58.57552 3.87258 30739 ft 476 kts 257°
2026-04-28 12:07 58.56491 3.81219 31131 ft 479 kts 257°
2026-04-28 12:08 58.55424 3.75164 31547 ft 481 kts 257°
2026-04-28 12:08 58.54346 3.69071 31939 ft 482 kts 257°
2026-04-28 12:08 58.53269 3.63008 32443 ft 481 kts 257°
2026-04-28 12:08 58.52191 3.56964 33004 ft 478 kts 257°
2026-04-28 12:09 58.51118 3.50961 33524 ft 476 kts 257°
2026-04-28 12:09 58.50048 3.45001 34239 ft 468 kts 257°
2026-04-28 12:09 58.48999 3.39194 35141 ft 456 kts 257°
2026-04-28 12:09 58.47976 3.33549 35944 ft 444 kts 258°
2026-04-28 12:10 58.46975 3.28033 36749 ft 433 kts 258°
2026-04-28 12:10 58.46000 3.22677 37591 ft 421 kts 258°
2026-04-28 12:10 58.45052 3.17470 38301 ft 412 kts 259°
2026-04-28 12:10 58.44117 3.12329 38551 ft 410 kts 259°
2026-04-28 12:11 58.42230 3.01896 38563 ft 427 kts 258°
2026-04-28 12:11 58.40237 2.90979 38561 ft 444 kts 257°
2026-04-28 12:12 58.38145 2.79658 38564 ft 459 kts 257°
2026-04-28 12:12 58.35976 2.68018 38562 ft 473 kts 257°
2026-04-28 12:13 58.33733 2.56064 38556 ft 485 kts 256°
2026-04-28 12:13 58.31436 2.43910 38514 ft 488 kts 256°
2026-04-28 12:14 58.29127 2.31781 38529 ft 487 kts 256°
2026-04-28 12:14 58.26816 2.19689 38542 ft 487 kts 256°
2026-04-28 12:15 58.24497 2.07622 38545 ft 486 kts 256°
2026-04-28 12:15 58.22167 1.95568 38539 ft 486 kts 256°
2026-04-28 12:16 58.19826 1.83535 38510 ft 486 kts 255°
2026-04-28 12:16 58.17477 1.71533 38528 ft 486 kts 255°
2026-04-28 12:17 58.15114 1.59533 38549 ft 486 kts 255°
2026-04-28 12:17 58.12753 1.47614 38546 ft 487 kts 255°
2026-04-28 12:18 58.10358 1.35598 38547 ft 488 kts 255°
2026-04-28 12:18 58.07950 1.23594 38549 ft 488 kts 255°
2026-04-28 12:19 58.05531 1.11606 38542 ft 488 kts 254°
2026-04-28 12:19 58.03104 0.99648 38551 ft 487 kts 254°
2026-04-28 12:20 58.00669 0.87725 38550 ft 487 kts 254°
2026-04-28 12:20 57.99444 0.81746 38071 ft 493 kts 253°
2026-04-28 12:20 57.98209 0.75734 37431 ft 489 kts 253°
2026-04-28 12:21 57.96977 0.69775 36699 ft 486 kts 253°
2026-04-28 12:21 57.95752 0.63859 35904 ft 485 kts 253°
2026-04-28 12:21 57.94523 0.57938 35037 ft 485 kts 253°
2026-04-28 12:21 57.93308 0.52101 34146 ft 484 kts 252°
2026-04-28 12:22 57.92077 0.46202 33188 ft 484 kts 252°
2026-04-28 12:22 57.90845 0.40312 32228 ft 484 kts 252°
2026-04-28 12:22 57.89606 0.34411 31224 ft 486 kts 252°
2026-04-28 12:22 57.88364 0.28511 30433 ft 483 kts 251°
2026-04-28 12:23 57.87132 0.22683 29644 ft 477 kts 251°
2026-04-28 12:23 57.85912 0.16931 28928 ft 470 kts 251°
2026-04-28 12:23 57.84705 0.11255 28224 ft 464 kts 251°
2026-04-28 12:23 57.83513 0.05662 27522 ft 459 kts 252°
2026-04-28 12:24 57.82330 0.00123 26819 ft 455 kts 252°
2026-04-28 12:24 57.81158 -0.05353 26126 ft 451 kts 251°
2026-04-28 12:24 57.79992 -0.10788 25464 ft 447 kts 251°
2026-04-28 12:24 57.78834 -0.16168 24806 ft 443 kts 251°
2026-04-28 12:25 57.77683 -0.21507 24136 ft 441 kts 251°
2026-04-28 12:25 57.76535 -0.26815 23353 ft 439 kts 251°
2026-04-28 12:25 57.75391 -0.32090 22658 ft 434 kts 251°
2026-04-28 12:25 57.74272 -0.37236 22000 ft 430 kts 251°
2026-04-28 12:26 57.73146 -0.42399 21339 ft 426 kts 251°
2026-04-28 12:26 57.72032 -0.47498 20695 ft 422 kts 251°
2026-04-28 12:26 57.70922 -0.52567 20067 ft 419 kts 251°
2026-04-28 12:26 57.69818 -0.57593 19442 ft 416 kts 251°
2026-04-28 12:27 57.68720 -0.62582 18810 ft 413 kts 251°
2026-04-28 12:27 57.67629 -0.67528 18111 ft 410 kts 251°
2026-04-28 12:27 57.66545 -0.72435 17452 ft 407 kts 251°
2026-04-28 12:27 57.65469 -0.77288 16836 ft 402 kts 251°
2026-04-28 12:28 57.64399 -0.82101 16230 ft 398 kts 250°
2026-04-28 12:28 57.63342 -0.86851 15636 ft 395 kts 250°
2026-04-28 12:28 57.62291 -0.91560 15039 ft 392 kts 250°
2026-04-28 12:28 57.61246 -0.96231 14449 ft 388 kts 250°
2026-04-28 12:29 57.59179 -1.05446 13155 ft 381 kts 250°
2026-04-28 12:29 57.58159 -1.09978 12551 ft 377 kts 249°
2026-04-28 12:29 57.57148 -1.14458 11957 ft 373 kts 249°
2026-04-28 12:30 57.56148 -1.18882 11391 ft 368 kts 249°
2026-04-28 12:30 57.55163 -1.23230 11047 ft 357 kts 249°
2026-04-28 12:30 57.54228 -1.27343 10896 ft 342 kts 249°
2026-04-28 12:30 57.53319 -1.31338 10755 ft 328 kts 249°
2026-04-28 12:31 57.52434 -1.35221 10616 ft 315 kts 249°
2026-04-28 12:31 57.51592 -1.38917 10397 ft 307 kts 249°
2026-04-28 12:31 57.50772 -1.42514 10014 ft 305 kts 249°
2026-04-28 12:31 57.49947 -1.46120 9647 ft 301 kts 248°
2026-04-28 12:32 57.49128 -1.49690 9290 ft 298 kts 248°
2026-04-28 12:32 57.48317 -1.53217 8929 ft 296 kts 248°
2026-04-28 12:32 57.47508 -1.56712 8579 ft 293 kts 248°
2026-04-28 12:32 57.46703 -1.60173 8227 ft 290 kts 248°
2026-04-28 12:33 57.45905 -1.63596 7876 ft 288 kts 247°
2026-04-28 12:33 57.45112 -1.66996 7530 ft 286 kts 247°
2026-04-28 12:33 57.44324 -1.70370 7180 ft 283 kts 247°
2026-04-28 12:33 57.43552 -1.73672 6824 ft 275 kts 247°
2026-04-28 12:34 57.42799 -1.76887 6468 ft 268 kts 247°
2026-04-28 12:34 57.42065 -1.80017 6122 ft 262 kts 246°
2026-04-28 12:34 57.41344 -1.83088 5837 ft 256 kts 246°
2026-04-28 12:34 57.40642 -1.86075 5503 ft 249 kts 246°
2026-04-28 12:35 57.39961 -1.88970 5269 ft 241 kts 246°
2026-04-28 12:35 57.39298 -1.91784 5158 ft 235 kts 246°
2026-04-28 12:35 57.38647 -1.94545 5046 ft 233 kts 246°
2026-04-28 12:35 57.37997 -1.97294 4942 ft 234 kts 246°
2026-04-28 12:36 57.37340 -2.00075 4842 ft 237 kts 245°
2026-04-28 12:36 57.36673 -2.02888 4736 ft 239 kts 245°
2026-04-28 12:36 57.36006 -2.05702 4624 ft 239 kts 245°
2026-04-28 12:36 57.35332 -2.08538 4396 ft 244 kts 245°
2026-04-28 12:37 57.34650 -2.11414 4112 ft 241 kts 245°
2026-04-28 12:37 57.33996 -2.14163 3858 ft 231 kts 245°
2026-04-28 12:37 57.33362 -2.16819 3615 ft 220 kts 245°
2026-04-28 12:37 57.32758 -2.19349 3359 ft 210 kts 245°
2026-04-28 12:38 57.32181 -2.21759 3137 ft 199 kts 245°
2026-04-28 12:38 57.31650 -2.23968 3023 ft 177 kts 242°
2026-04-28 12:38 57.30844 -2.25474 3009 ft 164 kts 202°
2026-04-28 12:38 57.29721 -2.25769 2801 ft 167 kts 168°
2026-04-28 12:39 57.28613 -2.25144 2464 ft 166 kts 161°
2026-04-28 12:39 57.27531 -2.24477 2143 ft 159 kts 160°
2026-04-28 12:39 57.26523 -2.23849 1943 ft 143 kts 159°
2026-04-28 12:39 57.25595 -2.23314 1594 ft 137 kts 163°
2026-04-28 12:40 57.24670 -2.22887 1202 ft 134 kts 163°
2026-04-28 12:40 57.23805 -2.22376 927 ft 127 kts 158°
2026-04-28 12:40 57.22982 -2.21835 637 ft 127 kts 157°
2026-04-28 12:40 57.22165 -2.21226 488 ft 124 kts 155°
2026-04-28 12:41 57.21377 -2.20651 335 ft 119 kts 155°
2026-04-28 12:41 57.20638 -2.20101 248 ft 105 kts 157°
2026-04-28 12:41 57.20076 -2.19691 249 ft 72 kts 158°
2026-04-28 12:41 57.19757 -2.19455 249 ft 40 kts 159°
2026-04-28 12:42 57.19611 -2.19348 247 ft 17 kts 158°
2026-04-28 12:42 57.19519 -2.19280 246 ft 12 kts 158°
2026-04-28 12:42 57.19443 -2.19248 245 ft 11 kts 207°
2026-04-28 12:42 57.19437 -2.19375 246 ft 11 kts 311°
2026-04-28 12:43 57.19493 -2.19471 246 ft 11 kts 319°
2026-04-28 12:43 57.19549 -2.19560 246 ft 11 kts 320°
2026-04-28 12:43 57.19612 -2.19657 246 ft 14 kts 322°
2026-04-28 12:43 57.19703 -2.19738 246 ft 15 kts 338°
2026-04-28 12:44 57.19797 -2.19809 246 ft 14 kts 338°
2026-04-28 12:44 57.19856 -2.19856 246 ft 14 kts 330°
2026-04-28 12:44 57.19927 -2.19970 246 ft 13 kts 316°
2026-04-28 12:44 57.19997 -2.20071 246 ft 13 kts 336°
2026-04-28 12:45 57.20048 -2.20124 246 ft 6 kts 289°
2026-04-28 12:45 57.20034 -2.20201 246 ft 6 kts 248°
2026-04-28 12:45 57.20029 -2.20223 246 ft 0 kts 248°
2026-04-28 12:45 57.20028 -2.20229 246 ft 0 kts 249°